User: anonymous
Location: ROBOsky.com Wild Flower Ridge Observatory
(43.9736°N, 79.9739°W)
Time: 17:23:53
(UTC-04:00)
Language:

Cosmos 1190 Rocket - Orbit

View from above orbital plane
View from above orbital plane
View from above satellite
View from above satellite

Ground track
Ground track

The orbit data is extracted from the following two-line orbital elements,

1 11870U 80056B   14202.86751999  .00000051  00000-0  26254-4 0  7648
2 11870 074.0549 356.3608 0016753 215.8942 251.4771 14.36507336782396
Epoch (UTC): 21 July 2014 20:49:13
Eccentricity: 0.0016753
inclination: 74.0549°
perigee height: 758 km
apogee height: 782 km
right ascension of ascending node: 356.3608°
argument of perigee: 215.8942°
revolutions per day: 14.36507336
mean anomaly at epoch: 251.4771°
orbit number at epoch: 78239

The dashed part of the orbit path shows where the satellite is in the earth's shadow,  

DLR